Flag for U.S.A. Weather past 2 weeks in Wilmington, Delaware, U.S.A.

Now
84 °F

Passing clouds.


Feels Like: 89 °F
Forecast: 75 / 86 °F
Wind: 8 mph from Southwest

Location: New Castle County Airport

Current Time: Jul 7, 2015 at 8:38:36 PM

Latest Report: Jul 7, 2015 at 7:51 PM


Visibility: 10 mi

Pressure: 29.97 "Hg

Humidity: 65%

Dew point: 71 °F

Location of WilmingtonLocation

Historic Weather in Wilmington — Graph

°F

Wilmington temperature yesterday

Maximum temperature yesterday: 85 °F (at 3:51 PM)
Minimum temperature yesterday: 72 °F (at 4:51 AM)
Average temperature yesterday: 78 °F

Past Weeks' High & Low Weather Summary

 TemperatureHumidityPressure
High92 °F (Jun 23, 1:51 PM)97% (Jun 23, 10:51 PM)30.16 "Hg (Jun 23, 10:51 PM)
Low60 °F (Jun 29, 4:51 AM)44% (Jun 24, 5:51 PM)29.63 "Hg (Jun 28, 3:51 AM)
Average73 °F75%29.95 "Hg
* Reported Jun 22 6:51 PM — Jul 7 6:51 PM, Wilmington, Weather by CustomWeather, © 2015

Note: Actual official high and low records may vary slightly from our data, if they occured in-between our weather recording intervals... More about our weather records

Advertising

Wilmington weather history for previous 24 hours

 ConditionsComfort  
Time TempWeatherWind HumidityBarometerVisibility
6:51 PM
Tue, Jul 7
85 °FScattered clouds.10 mph63%29.97 "Hg10 mi
5:51 PM86 °FPassing clouds.12 mph59%29.97 "Hg10 mi
4:51 PM87 °FPassing clouds.12 mph53%29.97 "Hg10 mi
3:51 PM87 °FPassing clouds.13 mph55%29.98 "Hg10 mi
2:51 PM87 °FPassing clouds.15 mph57%29.99 "Hg10 mi
1:51 PM87 °FPassing clouds.10 mph61%30.01 "Hg10 mi
12:51 PM85 °FScattered clouds.9 mph63%30.01 "Hg10 mi
11:51 AM83 °FScattered clouds.9 mph70%30.03 "Hg10 mi
10:51 AM82 °FScattered clouds.3 mph72%30.04 "Hg10 mi
9:51 AM80 °FPartly sunny.9 mph76%30.06 "Hg10 mi
9:01 AM79 °FPartly sunny.9 mph82%30.06 "Hg10 mi
8:03 AM77 °FPassing clouds.5 mph85%30.05 "Hg10 mi
7:51 AM76 °FSunny.6 mph88%30.04 "Hg10 mi
6:51 AM74 °FOvercast.6 mph91%30.04 "Hg10 mi
5:51 AM73 °FPassing clouds.7 mph90%30.03 "Hg10 mi
4:51 AM74 °FMostly cloudy.5 mph88%30.03 "Hg10 mi
3:51 AM74 °FPartly cloudy.5 mph91%30.02 "Hg10 mi
2:51 AM75 °FPassing clouds.8 mph88%30.03 "Hg10 mi
1:58 AM76 °FPartly cloudy.10 mph94%30.03 "Hg10 mi
12:59 AM76 °FPartly cloudy.10 mph94%30.03 "Hg10 mi
11:51 PM
Mon, Jul 6
77 °FPassing clouds.15 mph90%30.04 "Hg10 mi
10:51 PM77 °FOvercast.9 mph88%30.06 "Hg10 mi
9:51 PM77 °FPassing clouds.9 mph88%30.06 "Hg10 mi
8:51 PM78 °FSunny.7 mph90%30.06 "Hg10 mi
Weather by CustomWeather, © 2015

See weather overviewHow to use our weather pages